Tracking 31027 objects as of 19-Jul-2025
HD Live streaming from Space Station
objects crossing your sky now

TANSEI 3 DEB

Track TANSEI 3 DEB now!
10-day predictions


NORAD ID: 13133
Int'l Code: 1977-012J
Perigee: 813.7 km
Apogee: 3,637.1 km
Inclination: 65.8 °
Period: 132.2 minutes
Semi major axis: 8596 km
RCS: 0.0169 m2 (small)
Launch date: February 19, 1977
Source: Japan (JPN)
Launch site: KAGOSHIMA SPACE CENTER UNIVERSITY OF TOKYO (KSCUT)

Note: This is SATELLITE DEBRIS
Your satellite tracking list
COSMOS 2502
Track 1 satellite(s)




NASA's NSSDC Master Catalog

Two Line Element Set (TLE):
1 13133U 77012J   25199.65003613 -.00000571  00000-0 -15261-2 0  9990
2 13133  65.8457 292.1648 1642249  91.3863 287.4908 10.89251681908240
Source of the keplerian elements: AFSPC